Location: Central Falls
(41.8900°N, 71.3929°W)
Time: 07:28:41
(UTC+00:00)

Altair - Pass Details

Date: 09 December 2023
Orbit: 1501 x 1682 km, 47.2° (Epoch: 29 February)

Event Time Altitude Azimuth Distance (km) Brightness Sun altitude
Rises 09:16:31 0° 183° (S) 4,891 10.2 -29.8°
Reaches altitude 10° 09:20:53 10° 167° (SSE) 3,885 9.8 -29.0°
Maximum altitude 09:27:18 20° 126° (SE) 3,154 9.7 -27.8°
Drops below altitude 10° 09:33:34 10° 85° (E) 3,807 10.5 -26.6°
Sets 09:37:44 0° 69° (ENE) 4,763 11.0 -25.9°
